Location: Bern�tre
(50.1974°N, 2.0915°E)
Time: 09:32:12
(UTC+00:00)

ERS-1 Rocket - Pass Details

Date: 18 September 2020
Orbit: 753 x 757 km, 98.5° (Epoch: 27 October)

Event Time Altitude Azimuth Distance (km) Brightness Sun altitude
Exits shadow 20:57:23 50° 34° (NE) 958 3.4 -27.1°
Drops below altitude 10° 21:01:32 10° 352° (N) 2,297 6.1 -27.6°
Sets 21:03:53 0° 349° (N) 3,227 7.0 -27.9°
